Weather History for Port Huron, MI

Change the Weather History Date:

Wednesday, July 3, 2013

  Actual Average (KMTC) Record (KMTC)
Temperature  
Mean Temperature 70 °F -  
Max Temperature 82 °F 80 °F 98 °F (1966)
Min Temperature 57 °F 61 °F 45 °F (1971)
Cooling Degree Days 4    
Growing Degree Days 20 (Base 50)    
Moisture  
Dew Point 65 °F    
Average Humidity 84    
Maximum Humidity 100    
Minimum Humidity 58    
Precipitation  
Precipitation 0.00 in - - ()
Sea Level Pressure  
Sea Level Pressure 30.09 in    
Wind  
Wind Speed 2 mph (South)    
Max Wind Speed 15 mph    
Max Gust Speed 20 mph    
Visibility 8 miles    
Events      
Averages and records for this station are not official NWS values.
T = Trace of Precipitation, MM = Missing Value Source: NWS Daily Summary

Daily Weather History Graph

Daily Weather History Graph

Search for Another Location

Airport:

Trip Planner

Search our weather history database for the weather conditions in past years. The results will help you decide how hot, cold, wet, or windy it might be!

Date:

Astronomy

Jul. 03, 2013 Rise Set
Actual Time 5:56 AM EDT 9:12 PM EDT
Civil Twilight 5:21 AM EDT 9:47 PM EDT
Nautical Twilight 4:36 AM EDT 10:32 PM EDT
Astronomical Twilight 3:40 AM EDT 11:27 PM EDT
Moon 2:36 AM EDT (7/3) 5:19 PM EDT (7/3)
Length of Visible Light 16h 25m
Length of Day
15h 15m
Waning Crescent, 18% of the Moon is Illuminated
Jul 3
Waning Crescent
Jul 8
New
Jul 15
First Quarter
Jul 22
Full
Jul 29
Last Quarter

Hourly Weather History & Observations

Time (EDT) Temp. Heat Index Dew Point Humidity Pressure Visibility Wind Dir Wind Speed Gust Speed Precip Events Conditions
12:17 AM 59.0 °F - 59.0 °F 100% 30.09 in 10.0 mi Calm Calm - N/A   Clear
12:37 AM 59.0 °F - 59.0 °F 100% 30.10 in 10.0 mi Calm Calm - N/A   Scattered Clouds
12:57 AM 59.0 °F - 59.0 °F 100% 30.10 in 7.0 mi Calm Calm - N/A   Mostly Cloudy
1:17 AM 59.0 °F - 59.0 °F 100% 30.09 in 7.0 mi Calm Calm - N/A   Overcast
1:37 AM 59.0 °F - 59.0 °F 100% 30.09 in 10.0 mi Calm Calm - N/A   Overcast
1:57 AM 59.0 °F - 59.0 °F 100% 30.09 in 10.0 mi Calm Calm - N/A   Overcast
2:17 AM 60.8 °F - 60.8 °F 100% 30.09 in 10.0 mi Calm Calm - N/A   Mostly Cloudy
2:37 AM 59.0 °F - 59.0 °F 100% 30.09 in 7.0 mi Calm Calm - N/A   Scattered Clouds
2:57 AM 59.0 °F - 59.0 °F 100% 30.08 in 7.0 mi Calm Calm - N/A   Mostly Cloudy
3:17 AM 59.0 °F - 59.0 °F 100% 30.08 in 5.0 mi Calm Calm - N/A   Scattered Clouds
3:37 AM 59.0 °F - 59.0 °F 100% 30.08 in 7.0 mi Calm Calm - N/A   Mostly Cloudy
3:57 AM 59.0 °F - 59.0 °F 100% 30.08 in 7.0 mi Calm Calm - N/A   Mostly Cloudy
4:17 AM 59.0 °F - 59.0 °F 100% 30.07 in 4.0 mi Calm Calm - N/A   Scattered Clouds
4:37 AM 57.2 °F - 57.2 °F 100% 30.07 in 3.0 mi Calm Calm - N/A   Scattered Clouds
4:57 AM 59.0 °F - 59.0 °F 100% 30.08 in 5.0 mi Calm Calm - N/A   Clear
5:17 AM 57.2 °F - 57.2 °F 100% 30.08 in 3.0 mi Calm Calm - N/A   Clear
5:37 AM 57.2 °F - 57.2 °F 100% 30.08 in 4.0 mi Calm Calm - N/A   Clear
5:57 AM 57.2 °F - 57.2 °F 100% 30.09 in 1.0 mi Calm Calm - N/A   Mist
6:17 AM 57.2 °F - 57.2 °F 100% 30.09 in 3.0 mi Calm Calm - N/A   Clear
6:37 AM 59.0 °F - 59.0 °F 100% 30.09 in 4.0 mi Calm Calm - N/A   Clear
6:57 AM 59.0 °F - 59.0 °F 100% 30.09 in 5.0 mi Calm Calm - N/A   Clear
7:17 AM 60.8 °F - 60.8 °F 100% 30.10 in 7.0 mi Calm Calm - N/A   Clear
7:37 AM 62.6 °F - 62.6 °F 100% 30.10 in 7.0 mi Calm Calm - N/A   Clear
7:57 AM 64.4 °F - 62.6 °F 94% 30.10 in 7.0 mi Calm Calm - N/A   Clear
8:17 AM 66.2 °F - 64.4 °F 94% 30.11 in 10.0 mi Calm Calm - N/A   Clear
8:37 AM 68.0 °F - 66.2 °F 94% 30.11 in 10.0 mi Calm Calm - N/A   Clear
8:57 AM 69.8 °F - 66.2 °F 88% 30.11 in 7.0 mi East 4.6 mph - N/A   Clear
9:17 AM 69.8 °F - 66.2 °F 88% 30.11 in 7.0 mi ESE 4.6 mph - N/A   Clear
9:37 AM 71.6 °F - 66.2 °F 83% 30.12 in 7.0 mi ESE 4.6 mph - N/A   Clear
9:57 AM 71.6 °F - 68.0 °F 88% 30.12 in 7.0 mi Calm Calm - N/A   Clear
10:17 AM 73.4 °F - 68.0 °F 83% 30.12 in 7.0 mi Calm Calm - N/A   Scattered Clouds
10:37 AM 73.4 °F - 68.0 °F 83% 30.12 in 7.0 mi SE 3.5 mph - N/A   Mostly Cloudy
10:57 AM 73.4 °F - 68.0 °F 83% 30.12 in 7.0 mi Calm Calm - N/A   Mostly Cloudy
11:17 AM 75.2 °F - 69.8 °F 83% 30.12 in 7.0 mi Calm Calm - N/A   Overcast
11:37 AM 75.2 °F - 69.8 °F 83% 30.12 in 5.0 mi SSW 3.5 mph - N/A   Haze
11:57 AM 78.8 °F - 71.6 °F 78% 30.11 in 5.0 mi Calm Calm - N/A   Haze
12:17 PM 77.0 °F - 69.8 °F 78% 30.11 in 5.0 mi SSE 4.6 mph - N/A   Haze
12:37 PM 77.0 °F - 69.8 °F 78% 30.11 in 10.0 mi SSW 6.9 mph - N/A   Overcast
12:57 PM 77.0 °F - 71.6 °F 83% 30.11 in 10.0 mi West 4.6 mph - N/A   Overcast
1:17 PM 78.8 °F - 71.6 °F 78% 30.11 in 10.0 mi SSW 4.6 mph - N/A   Scattered Clouds
1:37 PM 80.6 °F 84.6 °F 71.6 °F 74% 30.10 in 10.0 mi SSW 9.2 mph - N/A   Mostly Cloudy
1:57 PM 80.6 °F 84.6 °F 71.6 °F 74% 30.09 in 10.0 mi SW 5.8 mph - N/A   Overcast
2:17 PM 80.6 °F 83.9 °F 69.8 °F 70% 30.09 in 10.0 mi South 10.4 mph 16.1 mph N/A   Mostly Cloudy
2:37 PM 82.4 °F 86.3 °F 69.8 °F 66% 30.09 in 10.0 mi SSW 9.2 mph - N/A   Scattered Clouds
2:57 PM 82.4 °F 85.4 °F 68.0 °F 62% 30.09 in 10.0 mi South 12.7 mph 17.3 mph N/A   Scattered Clouds
3:17 PM 82.4 °F 84.6 °F 66.2 °F 58% 30.09 in 10.0 mi SSW 11.5 mph - N/A   Scattered Clouds
3:37 PM 82.4 °F 85.4 °F 68.0 °F 62% 30.09 in 10.0 mi South 13.8 mph 17.3 mph N/A   Clear
3:57 PM 82.4 °F 85.4 °F 68.0 °F 62% 30.09 in 10.0 mi SSW 11.5 mph 18.4 mph N/A   Clear
4:17 PM 80.6 °F 83.2 °F 68.0 °F 65% 30.09 in 10.0 mi South 15.0 mph 19.6 mph N/A   Clear
4:37 PM 80.6 °F 83.2 °F 68.0 °F 65% 30.09 in 10.0 mi South 11.5 mph 17.3 mph N/A   Clear
4:57 PM 80.6 °F 82.7 °F 66.2 °F 61% 30.09 in 10.0 mi South 11.5 mph - N/A   Clear
5:17 PM 80.6 °F 82.7 °F 66.2 °F 61% 30.08 in 10.0 mi South 10.4 mph - N/A   Clear
5:37 PM 78.8 °F - 64.4 °F 61% 30.08 in 10.0 mi SSW 6.9 mph - N/A   Clear
5:57 PM 78.8 °F - 66.2 °F 65% 30.08 in 10.0 mi SSW 6.9 mph - N/A   Clear
6:17 PM 80.6 °F 82.7 °F 66.2 °F 61% 30.08 in 10.0 mi South 4.6 mph - N/A   Clear
6:37 PM 78.8 °F - 66.2 °F 65% 30.08 in 10.0 mi South 5.8 mph - N/A   Clear
6:57 PM 78.8 °F - 66.2 °F 65% 30.08 in 10.0 mi South 5.8 mph - N/A   Clear
7:17 PM 78.8 °F - 66.2 °F 65% 30.08 in 10.0 mi South 6.9 mph - N/A   Clear
7:37 PM 77.0 °F - 68.0 °F 74% 30.08 in 10.0 mi South 5.8 mph - N/A   Clear
7:57 PM 77.0 °F - 68.0 °F 74% 30.09 in 10.0 mi South 5.8 mph - N/A   Clear
8:17 PM 77.0 °F - 68.0 °F 74% 30.09 in 10.0 mi South 4.6 mph - N/A   Clear
8:37 PM 75.2 °F - 66.2 °F 73% 30.08 in 10.0 mi SSE 4.6 mph - N/A   Clear
8:57 PM 73.4 °F - 66.2 °F 78% 30.08 in 10.0 mi SSE 4.6 mph - N/A   Clear
9:17 PM 71.6 °F - 66.2 °F 83% 30.08 in 10.0 mi Calm Calm - N/A   Clear
9:37 PM 69.8 °F - 66.2 °F 88% 30.09 in 10.0 mi Calm Calm - N/A   Clear
9:57 PM 69.8 °F - 66.2 °F 88% 30.09 in 10.0 mi SSE 3.5 mph - N/A   Clear
10:17 PM 71.6 °F - 68.0 °F 88% 30.10 in 10.0 mi SSE 5.8 mph - N/A   Clear
10:37 PM 71.6 °F - 68.0 °F 88% 30.11 in 10.0 mi South 3.5 mph - N/A   Clear
10:57 PM 69.8 °F - 68.0 °F 94% 30.11 in 10.0 mi Calm Calm - N/A   Clear
11:17 PM 69.8 °F - 68.0 °F 94% 30.11 in 10.0 mi South 4.6 mph - N/A   Clear
11:37 PM 69.8 °F - 68.0 °F 94% 30.11 in 10.0 mi Calm Calm - N/A   Clear
11:57 PM 69.8 °F - 66.2 °F 88% 30.11 in 10.0 mi Calm Calm - N/A   Scattered Clouds